ROMMA est une association bénévole à but non lucratif. Votre soutien est indispensable : ADHERER à ROMMA ou FAIRE un DON

Grimentz - (CH, Suisse)

Alpes Valaisannes (1710 m)   Longitude: 07° 34' E   Latitude: 46° 11' N Station partenaire n°125
 

Détail journalier du     <<     >>

Température Precipitation Humidité Vent Dir Rafale Dir. rafale Ensol.
Heure (°C) (mm) (%) (km/h) (km/h) (min)
01:00 11.20582NO6NO0
02:00 11.50554ONO6ONO0
03:00 11.20562ONO10ONO0
04:00 10.70593NO6ONO0
05:00 10.70582NO6ONO0
06:00 10.00593ONO8ONO0
07:00 10.20593NO8NO0
08:00 10.00624NO6ONO0
09:00 10.70552NO6ONO0
10:00 14.10471---6SSE55
11:00 14.90441---6S60
12:00 16.80443E10ESE60
13:00 17.20443E10ESE60
14:00 17.30433E10E60
15:00 17.10433E10E60
16:00 17.30442E6S60
17:00 14.60481---5SSO10
18:00 12.805503SSO0
19:00 12.005200---0
20:00 10.90572ONO10ONO0
21:00 10.20602NO6ONO0
22:00 9.60614ONO10O0
23:00 9.90624NO10O0
minuit 10.10592ONO6ONO0

Graphique du 14-10-2019

 

Serveur OMMA